Wind_Speed
22 21 20 20 20 18 19 20 21 20 20 21 21 19 20 20 19 19 20 21 22 22 21 20 21 21 20 21 20 20 20 18 18 17 17 17 17 17 16 16 16 16 15 14
24 22 22 22 22 21 22 23 23 23 24 24 25 23 24 23 22 21 22 23 23 23 23 23 23 23 22 22 22 22 21 20 20 19 19 18 18 18 18 18 18 17 16 16
24 24 25 26 24 23 24 25 24 24 26 26 27 26 26 25 25 25 24 25 25 25 25 25 25 24 24 24 24 23 23 22 22 21 20 20 20 20 20 20 20 19 18 18
26 25 28 26 26 26 27 26 26 27 29 28 29 28 28 27 27 26 27 27 27 27 26 26 26 25 25 25 25 25 24 23 23 22 22 21 21 21 21 21 21 21 21 20
27 27 27 26 26 26 26 28 27 29 29 29 30 31 31 29 28 28 28 28 28 28 27 27 26 26 26 26 26 27 26 25 24 24 24 23 22 22 22 22 22 22 21 21
29 27 27 28 28 27 27 30 30 31 31 31 29 30 31 31 30 28 28 29 29 29 29 28 28 28 28 28 28 27 27 27 26 25 25 25 23 23 23 23 24 23 23 23
29 28 28 29 29 27 29 32 31 32 32 31 29 30 32 33 32 31 30 30 31 31 31 31 30 30 30 30 30 29 28 27 27 27 26 26 25 24 24 24 25 25 25 25
29 29 30 31 30 30 31 33 33 33 33 32 31 32 33 33 33 32 32 31 32 32 32 32 33 32 32 31 30 30 30 29 29 29 28 27 27 26 26 26 26 26 26 26
31 31 30 31 33 33 33 34 34 34 34 35 34 35 35 35 34 34 33 32 33 33 33 33 33 33 33 33 32 31 31 31 31 31 30 29 29 28 27 27 27 26 27 27
33 33 33 34 34 34 35 35 35 35 36 36 37 36 36 35 35 35 35 34 34 34 34 34 34 34 34 34 35 34 33 32 32 32 31 30 29 29 29 28 28 28 28 29
34 33 35 37 35 36 36 37 38 37 37 37 38 37 37 37 37 36 36 36 36 35 35 35 35 36 36 35 35 35 34 33 32 32 31 31 29 29 29 30 30 30 31 31
36 34 35 37 36 36 37 38 38 38 38 38 38 37 37 38 37 37 37 37 37 36 37 37 37 36 36 35 34 34 33 33 32 32 32 31 30 30 30 30 31 32 33 33
35 35 35 36 37 37 37 37 38 39 39 38 37 38 38 38 38 38 38 38 37 37 37 37 36 35 35 35 34 34 34 33 34 33 33 33 32 31 31 31 31 32 32 32
34 35 35 36 37 38 38 38 38 38 38 38 38 38 38 38 38 39 38 37 36 36 35 35 35 35 35 35 35 35 34 34 34 34 34 34 34 33 33 33 32 32 33 32
35 36 36 36 36 36 37 37 37 36 36 37 37 38 38 38 37 37 36 35 35 35 34 34 34 34 35 35 35 35 35 35 35 35 36 35 35 35 35 35 34 34 34 34
34 35 35 35 34 34 34 34 34 34 34 34 35 35 35 36 36 36 35 34 34 34 34 33 33 33 34 34 34 34 35 35 36 37 37 36 36 36 35 35 35 34 34 34
32 32 33 33 33 33 33 34 34 34 33 33 33 33 33 34 34 34 33 33 34 34 33 33 33 33 33 33 33 33 34 34 35 36 36 36 36 36 36 36 36 36 35 35
31 31 31 32 32 32 33 33 32 33 32 32 31 31 32 33 32 32 32 32 32 32 32 31 31 31 32 32 32 32 32 33 33 33 33 34 35 36 36 37 37 37 36 35
30 30 30 30 30 30 30 30 31 31 30 30 29 29 30 31 31 30 31 31 31 30 30 30 30 30 30 30 31 32 32 32 32 32 33 32 33 35 36 37 36 36 36 36
28 27 27 27 28 28 28 28 28 27 27 27 28 28 28 28 27 28 28 28 28 28 27 27 28 29 30 30 30 30 30 31 31 31 32 32 32 33 33 33 34 34 35 35
26 26 25 26 26 25 25 24 25 25 25 25 25 26 26 26 26 26 26 26 26 27 26 26 26 27 27 28 28 29 29 30 30 30 30 31 31 31 31 32 33 34 35 34
24 24 24 23 23 23 23 23 24 23 23 23 24 25 25 25 25 25 25 25 25 25 25 24 24 25 25 25 25 26 25 26 27 28 29 29 29 30 31 32 33 33 34 34
23 22 22 21 21 21 21 21 21 21 21 22 22 22 22 23 23 24 23 23 23 22 22 22 22 23 23 24 24 24 24 25 25 26 27 28 28 29 30 31 31 31 32 32
19 19 19 18 18 18 18 18 18 19 19 19 19 19 19 20 20 20 21 21 20 20 20 20 20 21 22 22 22 23 23 24 25 25 26 26 27 28 29 30 30 31 32 32
16 16 16 16 16 16 16 16 15 15 16 17 17 18 18 18 19 19 18 18 19 19 19 19 20 20 21 22 22 23 23 23 24 24 25 25 26 27 27 29 31 31 31 30
15 15 14 14 14 14 15 15 16 16 15 16 17 17 17 18 17 17 17 17 17 17 17 18 19 20 21 21 21 21 21 22 22 23 24 25 26 27 27 28 29 30 30 30
13 13 13 12 12 13 14 14 15 15 14 13 14 15 15 15 15 15 15 14 15 16 17 19 20 20 21 21 21 22 22 23 23 23 24 25 26 27 27 28 29 30 29 30
Wind_Direction
239 237 237 245 250 252 249 251 256 258 261 269 268 271 273 275 280 282 284 288 292 295 297 299 301 303 302 303 304 303 305 303 301 300 300 301 302 300 300 300 301 301 301 300
238 239 242 242 245 249 252 253 256 259 261 264 268 272 274 275 277 279 282 286 289 293 295 296 296 296 297 298 297 298 299 301 298 297 296 297 299 297 296 297 298 298 298 296
241 242 246 247 248 249 252 254 256 258 262 264 264 266 270 274 277 280 282 283 285 288 291 293 294 293 293 293 292 293 295 295 297 294 291 293 296 296 294 294 294 292 293 295
244 243 246 250 252 252 254 257 258 256 258 262 267 269 269 271 274 277 279 282 284 285 288 289 290 291 290 290 290 291 292 292 292 293 289 288 290 291 290 289 289 288 289 290
247 249 250 252 254 254 256 256 258 261 261 262 264 267 270 272 273 275 277 279 281 283 285 287 288 289 289 288 287 287 287 288 288 288 288 287 286 287 287 287 286 285 286 287
248 249 248 251 254 254 258 260 262 264 265 266 267 268 271 272 273 274 276 278 280 282 284 285 285 286 286 287 286 286 285 284 284 284 284 284 284 284 284 284 284 284 284 284
248 249 252 254 253 254 256 260 263 266 268 270 270 269 271 271 274 275 276 277 279 281 283 284 284 283 284 285 285 283 284 283 282 281 282 281 281 283 284 284 284 284 283 282
247 246 250 254 255 255 258 261 264 266 267 268 269 270 270 272 275 275 275 277 279 280 281 281 282 282 282 283 283 283 282 282 282 282 282 279 278 279 281 283 284 284 283 282
249 249 253 255 256 258 259 261 263 265 266 267 269 270 270 271 273 274 275 277 278 279 279 279 279 280 281 281 281 281 281 282 282 283 281 279 278 276 277 279 281 283 285 285
250 250 253 256 258 260 260 261 263 264 265 267 269 270 270 272 272 273 276 277 279 279 278 277 278 279 280 280 280 280 279 280 280 280 280 280 276 275 276 278 280 282 283 284
252 254 253 255 258 261 261 262 263 265 267 268 269 269 270 271 272 273 275 277 278 279 279 278 278 279 278 280 280 280 279 278 279 279 279 279 279 277 277 278 279 280 281 282
255 258 257 259 261 263 264 265 265 267 268 269 269 269 270 272 274 274 275 276 277 278 278 278 278 278 278 278 279 278 278 277 278 279 279 278 277 276 276 276 278 279 279 280
259 261 261 261 261 262 264 266 268 269 268 269 269 270 271 272 273 274 276 276 276 277 277 276 276 275 275 275 277 277 277 278 277 278 279 279 278 277 277 277 278 278 279 280
261 262 262 262 263 264 266 268 269 270 269 269 271 271 272 272 273 274 275 275 276 276 276 275 276 275 274 274 274 276 275 276 277 278 278 279 279 279 278 278 279 279 279 279
261 263 264 266 267 267 268 269 271 271 271 271 271 272 272 272 272 274 274 275 276 276 275 275 276 275 273 273 273 273 274 274 274 275 276 278 279 281 280 280 280 279 278 278
263 264 266 267 268 267 267 268 270 271 272 272 272 272 271 271 272 273 275 275 275 276 276 275 275 275 274 272 273 273 274 274 274 274 275 276 277 279 280 280 279 280 280 279
265 266 267 268 268 269 269 269 270 270 271 272 272 272 273 273 273 274 275 276 276 276 275 274 274 275 274 273 273 273 274 274 274 274 275 276 277 278 278 278 278 279 280 281
267 267 268 270 271 271 271 270 270 271 271 272 271 271 273 274 275 276 276 276 276 276 276 276 274 274 274 274 273 273 273 275 275 276 276 277 277 278 279 279 278 279 281 283
267 268 269 271 271 271 272 271 271 271 270 271 272 272 273 273 274 276 276 276 277 277 276 276 275 274 273 273 274 274 274 275 276 277 277 277 278 278 279 280 279 280 282 283
268 270 270 271 271 270 271 272 271 270 270 271 272 272 273 274 275 277 278 278 278 278 278 276 276 276 275 274 273 274 275 275 277 278 278 278 277 276 279 281 280 281 282 283
269 269 270 271 271 270 269 270 271 271 271 271 271 271 273 274 276 277 279 279 278 277 276 276 277 277 277 276 275 275 276 276 277 279 279 279 279 279 280 283 283 282 281 282
267 268 270 269 269 269 269 269 270 271 271 271 272 273 274 275 276 278 280 280 279 277 276 277 278 277 278 279 279 279 280 280 279 280 280 280 280 281 284 285 284 282 282 282
266 267 268 267 266 267 268 268 270 271 272 272 274 277 276 276 277 280 281 279 277 277 277 278 278 278 278 280 281 282 283 284 283 283 283 283 284 284 286 286 284 284 285 285
266 266 265 266 269 269 269 268 269 271 274 276 276 277 279 280 281 282 282 280 278 277 279 280 281 281 282 284 285 286 287 287 285 285 285 285 285 286 288 289 287 287 286 287
266 266 267 268 272 271 269 271 273 273 274 277 279 280 281 283 284 283 281 280 280 278 279 280 282 283 285 288 288 288 288 288 287 287 286 287 288 288 290 291 289 288 288 288
263 263 265 268 269 269 269 271 276 277 277 279 281 283 284 286 285 281 280 280 281 280 280 282 284 286 289 290 290 291 291 291 290 290 290 290 290 291 292 294 294 294 293 292
261 262 265 267 269 270 272 276 280 281 280 280 281 284 287 287 286 286 286 287 287 285 286 287 288 289 291 291 291 292 293 293 292 293 292 292 294 294 296 297 298 298 297 296
Height
5892 5895 5896 5897 5899 5901 5902 5903 5903 5903 5903 5901 5899 5899 5899 5899 5899 5899 5898 5897 5896 5895 5894 5894 5892 5891 5889 5888 5886 5885 5883 5882 5881 5879 5878 5876 5875 5874 5872 5871 5870 5868 5867 5866
5886 5889 5891 5892 5894 5895 5897 5897 5897 5897 5897 5896 5894 5893 5894 5894 5894 5894 5893 5893 5892 5891 5890 5889 5888 5886 5885 5883 5882 5881 5879 5878 5876 5875 5874 5873 5871 5870 5869 5868 5867 5865 5864 5863
5880 5883 5884 5886 5888 5889 5890 5891 5891 5891 5891 5890 5888 5887 5888 5888 5888 5888 5888 5887 5886 5886 5885 5884 5883 5881 5880 5878 5877 5876 5875 5873 5872 5870 5869 5868 5867 5865 5864 5863 5862 5861 5860 5859
5873 5876 5877 5882 5883 5883 5884 5884 5884 5884 5883 5883 5882 5882 5882 5882 5882 5882 5882 5881 5880 5880 5879 5878 5877 5875 5874 5872 5871 5870 5869 5868 5866 5865 5863 5862 5861 5860 5859 5858 5857 5856 5855 5854
5866 5868 5870 5874 5875 5876 5876 5876 5877 5875 5875 5875 5876 5876 5874 5874 5875 5875 5875 5874 5873 5872 5872 5871 5870 5869 5867 5866 5865 5863 5862 5861 5860 5859 5858 5856 5856 5854 5853 5852 5851 5850 5849 5848
5858 5861 5863 5866 5867 5868 5870 5868 5869 5868 5868 5868 5868 5869 5868 5867 5867 5867 5867 5866 5866 5865 5864 5864 5863 5862 5860 5859 5858 5856 5855 5854 5853 5852 5851 5850 5849 5848 5847 5846 5845 5844 5843 5842
5850 5852 5854 5856 5857 5859 5862 5861 5860 5860 5860 5860 5860 5861 5860 5859 5859 5859 5859 5859 5858 5857 5856 5856 5855 5854 5853 5852 5850 5849 5848 5847 5845 5844 5843 5843 5842 5841 5840 5839 5838 5837 5837 5836
5843 5845 5848 5846 5848 5850 5851 5851 5851 5852 5852 5852 5852 5852 5851 5850 5851 5851 5850 5850 5850 5849 5848 5847 5846 5845 5845 5844 5843 5841 5840 5838 5837 5837 5836 5835 5834 5833 5833 5832 5831 5830 5829 5828
5835 5838 5838 5838 5839 5839 5840 5842 5843 5843 5843 5843 5843 5842 5842 5842 5842 5842 5842 5841 5840 5840 5839 5838 5837 5836 5836 5835 5834 5833 5832 5830 5829 5829 5827 5827 5826 5825 5824 5824 5823 5822 5821 5820
5825 5827 5829 5829 5830 5830 5831 5832 5832 5832 5832 5833 5832 5832 5832 5831 5832 5832 5832 5832 5831 5830 5829 5829 5828 5827 5826 5825 5824 5823 5823 5822 5820 5819 5818 5817 5816 5816 5816 5815 5815 5814 5813 5812
5815 5817 5818 5819 5820 5821 5821 5821 5822 5822 5822 5822 5822 5822 5822 5822 5822 5822 5822 5822 5821 5820 5819 5818 5818 5817 5816 5815 5814 5813 5812 5812 5811 5810 5809 5809 5808 5807 5807 5807 5806 5806 5805 5803
5806 5808 5808 5810 5811 5811 5811 5811 5811 5812 5812 5812 5812 5812 5812 5812 5812 5812 5811 5811 5810 5809 5808 5808 5807 5807 5806 5805 5804 5803 5802 5802 5801 5801 5800 5799 5798 5798 5798 5797 5797 5796 5795 5794
5797 5798 5799 5800 5800 5800 5800 5801 5801 5801 5801 5801 5801 5801 5801 5801 5801 5800 5800 5799 5799 5798 5797 5796 5796 5796 5795 5795 5794 5794 5793 5792 5791 5791 5791 5790 5789 5789 5789 5788 5787 5786 5785 5784
5788 5788 5789 5790 5790 5790 5790 5790 5790 5790 5790 5790 5790 5790 5790 5789 5789 5789 5789 5788 5787 5787 5786 5785 5785 5785 5785 5784 5784 5784 5783 5783 5782 5781 5781 5780 5779 5779 5779 5778 5777 5777 5776 5775
5779 5779 5779 5779 5780 5780 5780 5779 5779 5779 5779 5779 5778 5778 5778 5778 5778 5778 5777 5777 5776 5776 5775 5775 5774 5774 5774 5774 5774 5774 5773 5773 5773 5772 5771 5771 5770 5769 5769 5768 5767 5766 5765 5765
5769 5770 5770 5769 5769 5769 5769 5769 5769 5769 5768 5768 5768 5767 5767 5767 5767 5767 5766 5766 5765 5765 5764 5764 5764 5764 5764 5764 5764 5764 5764 5763 5763 5762 5761 5761 5760 5759 5758 5757 5756 5756 5755 5754
5760 5760 5760 5760 5759 5759 5759 5759 5759 5758 5758 5758 5758 5758 5757 5757 5757 5756 5756 5755 5755 5755 5754 5754 5754 5754 5753 5753 5753 5753 5753 5753 5752 5752 5751 5751 5750 5749 5748 5746 5745 5745 5744 5743
5751 5751 5750 5750 5750 5749 5749 5749 5748 5749 5748 5748 5748 5748 5748 5748 5747 5747 5747 5746 5745 5745 5745 5744 5744 5744 5744 5744 5743 5743 5743 5743 5742 5742 5741 5741 5740 5738 5737 5735 5735 5734 5733 5732
5742 5742 5742 5741 5741 5740 5739 5739 5739 5739 5739 5739 5739 5739 5739 5739 5739 5738 5737 5737 5736 5736 5736 5735 5735 5735 5734 5734 5734 5734 5734 5733 5733 5732 5732 5731 5730 5729 5727 5726 5724 5723 5722 5721
5735 5734 5733 5733 5732 5732 5731 5731 5731 5731 5731 5731 5731 5731 5731 5731 5731 5730 5729 5729 5728 5728 5727 5727 5727 5726 5726 5726 5725 5725 5724 5724 5723 5723 5722 5721 5720 5719 5718 5716 5714 5713 5711 5710
5727 5727 5726 5726 5725 5725 5725 5724 5724 5724 5725 5724 5724 5724 5724 5724 5723 5722 5722 5721 5720 5719 5719 5719 5719 5719 5718 5717 5717 5716 5715 5715 5714 5713 5713 5712 5711 5710 5709 5707 5705 5703 5701 5700
5721 5720 5720 5719 5719 5718 5718 5718 5718 5718 5718 5718 5718 5717 5716 5716 5716 5715 5714 5714 5713 5712 5712 5711 5711 5711 5710 5710 5709 5708 5707 5706 5706 5705 5704 5703 5702 5701 5699 5698 5695 5693 5691 5690
5714 5714 5714 5714 5713 5712 5712 5712 5712 5712 5712 5712 5711 5710 5709 5709 5709 5708 5707 5707 5706 5705 5705 5705 5704 5704 5704 5703 5702 5701 5700 5699 5698 5697 5696 5695 5694 5692 5690 5688 5685 5683 5681 5680
5709 5709 5708 5708 5707 5707 5707 5707 5707 5707 5706 5705 5705 5705 5704 5703 5702 5702 5701 5700 5699 5699 5698 5698 5698 5698 5697 5696 5695 5694 5693 5692 5691 5690 5688 5687 5685 5683 5681 5679 5676 5674 5672 5670
5704 5704 5704 5704 5704 5703 5703 5703 5702 5702 5701 5701 5701 5700 5699 5698 5697 5696 5695 5695 5694 5694 5693 5693 5693 5692 5691 5690 5689 5687 5686 5685 5683 5682 5681 5679 5677 5675 5673 5670 5667 5664 5662 5660
5700 5701 5701 5700 5700 5700 5699 5699 5698 5698 5697 5697 5696 5696 5695 5693 5692 5691 5691 5690 5690 5689 5688 5688 5687 5686 5685 5684 5682 5681 5680 5678 5677 5675 5674 5672 5670 5667 5665 5662 5659 5656 5654 5651
5697 5697 5697 5698 5697 5697 5696 5695 5695 5694 5694 5693 5693 5692 5691 5690 5688 5688 5687 5686 5685 5684 5684 5683 5682 5681 5679 5678 5676 5675 5673 5672 5670 5669 5667 5665 5662 5660 5657 5654 5651 5648 5645 5642